User: anonymous   Login
Location: SAPM � Hemmingford
(45.0500°N, 73.5833°W)
Time: 22:23:30
(UTC-04:00)
Language:

Cosmos 1674 Rocket - Orbit

View from above orbital plane
View from above orbital plane
View from above satellite
View from above satellite

Ground track
Ground track

The orbit data is extracted from the following two-line orbital elements,

1 15945U 85069B   17146.50745485 +.00000089 +00000-0 +78060-5 0  9992
2 15945 082.5260 153.3270 0019668 358.4938 001.6215 14.83923976696738
Epoch (UTC): 26 May 2017 12:10:44
Eccentricity: 0.0019668
inclination: 82.5260°
perigee height: 603 km
apogee height: 631 km
right ascension of ascending node: 153.3270°
argument of perigee: 358.4938°
revolutions per day: 14.83923976
mean anomaly at epoch: 1.6215°
orbit number at epoch: 69673

The dashed part of the orbit path shows where the satellite is in the earth's shadow,  

DLR